ATLAS 5 CENTAUR R/B, 41020

Orbit data source: Space-Track

ATLAS 5 CENTAUR R/B, 41020 is space debris in MEO originally from a launch on Sat, 31 Oct 2015 UTC launched from the Air Force Eastern Test Range (AFETR). Debris objects in space refer to the collection of defunct objects orbiting the Earth. Examples of debris include non-operational satellites, rocket bodies, and fragments generated from explosions, collisions, or faulty payload assembly.

Loading next visibility...
Identifier
41020, 2015-062B
Orbit
MEO
Country
Flag of USUS
Related business
Flag of USUnited Launch Alliance/Lockheed Martin (US)
Manufacturer
LMSS Denver
Mission
Spacecraft
Bus & Motor
CENTAUR SEC, RL10C-1
Mass
~2,020 kg wet, 2,020 kg dry
Launch date (UTC)
2015-10-31 (11 years ago)
Launch vehicle
Unknown
Launch site
Air Force Eastern Test Range (AFETR)
Object type
Payload
Rocket body
Debris
Shape & HBR
Cyl + 1 Nozzle, 5.8 m
Radar Cross Section
32.260 m², Large (>1 m²)

Expand to show TLE details & history
Last TLE update: 3 days ago

TLE from 3 days ago
0 ATLAS 5 CENTAUR R/B
1 41020U 15062B   26170.07796533 -.00000077  00000-0  00000-0 0  9992
2 41020  57.3040  47.3824 0166807 337.2722  22.0539  1.90405994 73956
Epoch: 2026-06-19T01:52Z
TLE epoch observation values (Epoch: 2026-06-19T01:52:16.204Z)
Latitude
-0.00001°
Longitude
112.02173°
Altitude
20,695.394 km
Speed
3.867 km/s
True Right ascension
03h 09m 36s
True Declination
0° 00' 00"
Sunlit
Object was in daylight at epoch
Visualization orbit readout
Latitude
Unknown
Longitude
Unknown
Altitude
Unknown
Speed
Unknown
Apparent Right ascension
Unknown
Apparent Declination
Unknown
Sunlit
N/A
Visualization observer readout
Local Sidereal Time
21:34:35
Azimuth
Unknown
Elevation
Unknown
Doppler factor
Unknown
Orbital elements
Apogee altitude
21,577.198 km
Perigee altitude
20,659.87 km
Semi-major axis
27,496.671 km
Eccentricity
0.01668
Inclination
57.304°
RAAN
47.3824°
Arg. of periapsis
337.2722°
True anomaly
22.78573°
Mean anomaly
22.0539°
Eccentric anomaly
22.41839°
Mean motion
0.47602 °/min
Orbital period
756.27 mins
BSTAR
0
Loading maneuver chart data...
Computing Atmospheric mass density...
Loading historical data...
Loading historical data...
Loading historical data...
Loading historical data...
Loading historical data...
Loading historical data...
Loading historical data...
Other satellites on launch #62 in the year 2015 (2015-10-31 UTC)

Documentation

Showing up to 5 results
|